[[{"header":{"parameterUnit":"m.s-1","parameterCategory":1,"la1":30.2991,"la2":30.254,"lo1":-89.0895,"lo2":-89.0444,"dy":0.0017,"dx":0.0017,"nx":28,"ny":28,"refTime":"2023-08-04T03:00:00:Z","depth":0,"parameterNumber":2,"parameterNumberName":"U-component_of_WINDS"},"data":[0,0,0,0,0,0,0,0,0,0,0,0,0,0,0,0,0,0,0,0,0,0,0,0,0,0,0,0,0,0,0,0,0,0,0,0,0,0,0,0,0,0,0,0,0,0,0,0,0,0,0,0,0,0,0,0,0,0,3.0825,3.0825,0,3.0874,3.0874,3.0875,3.0804,3.0801,3.0798,3.0796,3.0849,3.0852,3.0856,0,0,0,0,0,0,0,0,0,0,0,0,0,3.0668,3.0672,3.0825,3.0825,3.0826,3.0874,3.0874,3.0875,3.0804,3.0801,3.0798,3.0795,3.0847,3.0852,3.0856,0,0,0,0,0,0,0,0,0,0,0,0,0,3.0729,3.0673,3.0825,3.0796,3.0794,3.0874,3.0875,3.0875,3.0805,3.0801,3.0797,3.0793,3.0846,3.0851,3.0857,3.0968,0,0,3.0874,3.0877,0,0,0,0,0,0,0,0,3.0726,3.0735,3.08,3.0798,3.0796,3.0829,3.0838,3.0906,3.0806,3.0801,3.0796,3.0792,3.0845,3.0851,3.0868,3.097,3.0972,3.0875,3.0878,3.0881,3.0882,0,0,0,0,0,0,0,3.0721,3.0732,3.0844,3.0801,3.0798,3.0781,3.0785,3.0851,3.0844,3.0801,3.0796,3.0802,3.0843,3.0863,3.0869,3.0973,3.0875,3.088,3.0883,3.0885,3.1164,3.1167,0,0,0,0,0,0,3.0721,3.0729,3.0843,3.0846,3.0751,3.0786,3.0791,3.0822,3.0843,3.0842,3.0806,3.0799,3.0855,3.0863,3.0871,3.0998,3.088,3.0886,3.0889,3.116,3.1164,3.1169,0,0,0,0,0,0,3.0717,3.0731,3.0841,3.0786,3.0798,3.0793,3.0828,3.0825,3.0844,3.0846,3.0845,3.0827,3.0853,3.0863,3.0943,3.0999,3.0888,3.0893,3.1155,3.1161,3.1167,3.1257,0,0,0,0,0,0,3.0713,3.0731,3.0773,3.0787,3.0802,3.0913,3.0832,3.0829,3.0854,3.0846,3.0866,3.0866,3.085,3.0935,3.0948,3.1005,3.0898,3.115,3.1158,3.1165,3.1249,3.1265,3.1279,0,0,0,0,0,3.0708,3.0798,3.0776,3.079,3.0855,3.0916,3.0924,3.0904,3.0859,3.0901,3.0901,3.0865,3.0991,3.0944,3.0958,3.1018,3.1146,3.1155,3.1164,3.1242,3.1262,3.1279,0,0,0,0,0,0,3.0792,3.0799,3.0775,3.0872,3.0894,3.0904,3.0956,3.0927,3.0962,3.0953,3.0927,3.0933,3.1018,3.1026,3.0973,3.1123,3.1061,3.1073,3.1115,3.1134,3.1149,3.1145,3.0902,0,0,0,0,0,3.0822,3.0871,3.0875,3.096,3.0972,3.0963,3.0989,3.0971,3.0993,3.1002,3.1008,3.1031,3.1075,3.1105,3.1147,3.125,3.1251,3.1297,3.1312,3.1325,3.1336,3.1387,3.1407,3.1198,3.1198,3.1198,0,0,3.0884,3.0894,3.0927,3.0977,3.0992,3.1042,3.0971,3.1029,3.1065,3.1011,3.1086,3.1091,3.1115,3.1206,3.1247,3.1215,3.1393,3.1337,3.1346,3.135,3.1399,3.1418,3.1436,3.1205,3.1203,3.1203,0,0,3.1022,3.1036,3.1107,3.1122,3.1144,3.1137,3.1154,3.1168,3.1169,3.1243,3.1202,3.1246,3.1324,3.1341,3.136,3.1502,3.1468,3.1516,3.1595,3.1646,3.1662,3.1676,3.1724,3.1742,3.1527,3.1527,3.1527,0,3.1097,3.1171,3.1147,3.1206,3.1228,3.118,3.125,3.1267,3.1302,3.1318,3.1282,3.1376,3.1389,3.1482,3.1516,3.1534,3.1551,3.1513,3.1662,3.1676,3.1689,3.1734,3.1752,3.1532,3.1532,3.1531,3.1531,0,3.126,3.1313,3.1367,3.14,3.1428,3.1493,3.1478,3.1509,3.1489,3.1485,3.156,3.1573,3.1614,3.1635,3.1617,3.1724,3.1704,3.1666,3.1602,3.1714,3.1756,3.1774,3.154,3.1538,3.1537,3.1535,0,0,3.1455,3.1471,3.1491,3.1503,3.1523,3.1563,3.1624,3.1663,3.1689,3.1715,3.1765,3.183,3.1793,3.1815,3.1798,3.1842,3.195,3.1798,3.1798,3.1824,3.2066,3.2093,3.2114,3.1928,3.1931,3.1934,3.2063,0,3.159,3.1696,3.1674,3.1777,3.1823,3.1776,3.1829,3.1846,3.1844,3.1882,3.1879,3.1925,3.1875,3.1887,3.1929,3.1928,3.1998,3.1918,3.1973,3.1975,3.1966,3.2136,3.2166,3.2287,3.2079,3.2082,3.2084,0,3.1764,3.1792,3.19,3.1908,3.1927,3.1975,3.2006,3.2045,3.2062,3.2057,3.208,3.2053,3.2112,3.2049,3.2129,3.2076,3.2097,3.2099,3.2104,3.2107,3.2035,3.2142,3.2326,3.2343,3.211,3.2108,3.2107,0,3.1891,3.1957,3.2028,3.2041,3.2054,3.2088,3.2095,3.2109,3.2133,3.2161,3.2175,3.2211,3.223,3.2258,3.2241,3.2196,3.2324,3.2259,3.232,3.232,3.2348,3.2346,3.2536,3.2365,3.2365,3.2364,3.2364,0,3.2044,3.211,3.2085,3.2129,3.2202,3.2176,3.2248,3.2249,3.2262,3.2304,3.2267,3.2307,3.2283,3.2322,3.2309,3.2376,3.2386,3.2382,3.2378,3.2385,3.2385,3.2397,3.2387,3.2369,3.2368,3.2367,3.2366,0,3.2198,3.2185,3.2259,3.2263,3.2266,3.2319,3.2323,3.2363,3.2356,3.241,3.2422,3.2412,3.2455,3.244,3.2488,3.2479,3.2563,3.2549,3.2557,3.2553,3.2613,3.2606,3.2816,3.2841,3.2655,3.2657,3.2659,0,3.2296,3.2345,3.2354,3.2379,3.2388,3.243,3.2453,3.2429,3.2454,3.2476,3.2513,3.2552,3.2582,3.2654,3.265,3.2685,3.267,3.2741,3.2676,3.268,3.2668,3.2665,3.2668,3.2754,3.2756,3.2758,3.2759,0,3.247,3.2459,3.2493,3.2524,3.2552,3.2576,3.2596,3.2619,3.2595,3.2626,3.2668,3.2691,3.2737,3.2776,3.2807,3.2814,3.2783,3.278,3.2795,3.2802,3.2803,3.2801,3.259,3.2775,3.2774,3.2772,3.2772,3.2771,3.2597,3.2637,3.2649,3.2687,3.2699,3.2718,3.2755,3.2752,3.2786,3.2821,3.2805,3.2853,3.2867,3.2905,3.2916,3.2953,3.2926,3.2949,3.2954,3.296,3.2966,3.2799,3.2959,3.2959,3.2958,3.2958,3.2957,0,3.2766,3.2771,3.2806,3.2834,3.2863,3.283,3.285,3.2876,3.2919,3.2934,3.2964,3.3011,3.3048,3.3047,3.308,3.311,3.3096,3.312,3.3116,3.3118,3.299,3.2972,3.313,3.313,3.313,3.313,3.313,3.313,3.2858,3.2923,3.2914,3.2984,3.2988,3.3034,3.3048,3.3064,3.3076,3.313,3.3159,3.3158,3.3166,3.3199,3.3231,3.3229,3.3243,3.3271,3.3264,3.3145,3.3127,3.3111,3.3094,3.3275,3.3275,3.3388,3.339,3.339]},{"header":{"parameterUnit":"m.s-1","parameterCategory":1,"la1":30.2991,"la2":30.254,"lo1":-89.0895,"lo2":-89.0444,"dy":0.0017,"dx":0.0017,"nx":28,"ny":28,"refTime":"2023-08-04T03:00:00:Z","depth":0,"parameterNumber":3,"parameterNumberName":"V-component_of_WINDS"},"data":[0,0,0,0,0,0,0,0,0,0,0,0,0,0,0,0,0,0,0,0,0,0,0,0,0,0,0,0,0,0,0,0,0,0,0,0,0,0,0,0,0,0,0,0,0,0,0,0,0,0,0,0,0,0,0,0,0,0,5.7283,5.7283,0,5.7315,5.7315,5.7316,5.724,5.7238,5.7236,5.7233,5.7261,5.7264,5.7267,0,0,0,0,0,0,0,0,0,0,0,0,0,5.7152,5.7155,5.7283,5.7283,5.7284,5.7315,5.7315,5.7316,5.7241,5.7238,5.7235,5.7232,5.726,5.7264,5.7268,0,0,0,0,0,0,0,0,0,0,0,0,0,5.7199,5.7156,5.7283,5.725,5.7248,5.7315,5.7315,5.7316,5.7241,5.7238,5.7234,5.7231,5.7259,5.7264,5.7268,5.7367,0,0,5.7282,5.7284,0,0,0,0,0,0,0,0,5.7196,5.7204,5.7255,5.7253,5.725,5.727,5.7279,5.7333,5.7242,5.7244,5.7233,5.7229,5.7267,5.7271,5.7284,5.7368,5.7369,5.7282,5.7285,5.7287,5.7288,0,0,0,0,0,0,0,5.7193,5.7202,5.7295,5.7255,5.7253,5.7232,5.7235,5.7289,5.7275,5.7243,5.7238,5.7243,5.7265,5.728,5.7284,5.737,5.7282,5.7286,5.7289,5.729,5.7534,5.7538,0,0,0,0,0,0,5.7195,5.72,5.7294,5.7296,5.7214,5.7238,5.7241,5.7267,5.7274,5.7272,5.7246,5.7239,5.7274,5.7279,5.7285,5.7399,5.7287,5.7291,5.7293,5.753,5.7535,5.7539,0,0,0,0,0,0,5.7192,5.7204,5.7293,5.7247,5.7256,5.7244,5.7274,5.727,5.7285,5.7276,5.7273,5.7264,5.7272,5.7279,5.7347,5.7399,5.7293,5.7297,5.7526,5.7532,5.7537,5.763,0,0,0,0,0,0,5.7189,5.7203,5.7242,5.7248,5.7259,5.7356,5.7277,5.7273,5.7293,5.7285,5.7292,5.729,5.7269,5.7341,5.7351,5.7403,5.73,5.7521,5.7528,5.7535,5.7622,5.7638,5.7652,0,0,0,0,0,5.7184,5.7267,5.7245,5.7256,5.7308,5.736,5.7366,5.7341,5.7298,5.7335,5.733,5.729,5.7392,5.7348,5.736,5.7414,5.7518,5.7526,5.7535,5.7615,5.7635,5.7651,0,0,0,0,0,0,5.7266,5.7267,5.7242,5.7329,5.7345,5.7347,5.7394,5.7363,5.739,5.7381,5.7348,5.735,5.7424,5.7426,5.7377,5.7509,5.7447,5.7458,5.7505,5.7523,5.7538,5.7535,5.7304,0,0,0,0,0,5.7294,5.7338,5.7336,5.7412,5.7422,5.7407,5.7428,5.7408,5.7423,5.7428,5.7428,5.7442,5.7477,5.75,5.7532,5.7623,5.7622,5.7665,5.768,5.7693,5.7702,5.7748,5.7766,5.7567,5.7567,5.7567,0,0,5.7352,5.7358,5.7388,5.7429,5.7439,5.7483,5.7413,5.7463,5.7494,5.7435,5.7499,5.75,5.7513,5.7592,5.7627,5.7596,5.7757,5.7703,5.7713,5.7716,5.7758,5.7777,5.7794,5.7573,5.7572,5.7571,0,0,5.7481,5.7491,5.7555,5.7566,5.7583,5.7572,5.7588,5.7594,5.7592,5.7656,5.7613,5.7649,5.7711,5.7722,5.7735,5.7868,5.7831,5.7879,5.7956,5.8001,5.8016,5.803,5.8075,5.8092,5.7889,5.7889,5.7889,0,5.755,5.7617,5.7591,5.7644,5.7662,5.7613,5.7676,5.7688,5.7714,5.7727,5.7692,5.7767,5.7773,5.7853,5.7885,5.7899,5.7914,5.7877,5.8017,5.803,5.8042,5.8085,5.8102,5.7895,5.7894,5.7893,5.7893,0,5.77,5.7747,5.7797,5.7823,5.7848,5.7906,5.7887,5.7914,5.7892,5.7885,5.795,5.7955,5.7986,5.8004,5.7983,5.8081,5.8061,5.8022,5.7959,5.8067,5.8106,5.8123,5.7902,5.79,5.7899,5.7897,0,0,5.788,5.7892,5.791,5.7921,5.7936,5.797,5.8025,5.8057,5.808,5.8099,5.8142,5.8196,5.816,5.8175,5.8155,5.8195,5.8296,5.815,5.815,5.8175,5.8402,5.843,5.8449,5.8273,5.8276,5.8279,5.84,0,5.8005,5.81,5.8079,5.8172,5.8213,5.8167,5.8214,5.8227,5.8222,5.8254,5.8248,5.8285,5.8236,5.8245,5.8283,5.8276,5.8341,5.8267,5.8311,5.8313,5.8307,5.847,5.8499,5.8613,5.8416,5.8418,5.842,0,5.8163,5.8189,5.8287,5.8293,5.831,5.8353,5.838,5.8413,5.8425,5.8418,5.8436,5.8408,5.846,5.8398,5.8469,5.8419,5.8436,5.8435,5.8439,5.844,5.8372,5.8473,5.865,5.8666,5.8444,5.8443,5.8441,0,5.8281,5.8341,5.8406,5.8417,5.8427,5.8458,5.8463,5.8473,5.8493,5.8516,5.8528,5.8557,5.8572,5.8595,5.8574,5.8532,5.8647,5.8584,5.864,5.8641,5.8665,5.8663,5.8844,5.868,5.868,5.8679,5.8679,0,5.8421,5.8482,5.8459,5.8499,5.8566,5.854,5.8606,5.8605,5.8614,5.8652,5.8614,5.865,5.8622,5.8655,5.8639,5.8698,5.8706,5.87,5.8695,5.8702,5.8703,5.8711,5.8702,5.8684,5.8683,5.8682,5.8681,0,5.8563,5.8551,5.8619,5.8623,5.8625,5.8673,5.8676,5.8712,5.8704,5.8752,5.8762,5.8749,5.8786,5.8768,5.8807,5.8796,5.8872,5.8857,5.8868,5.8863,5.8919,5.8914,5.911,5.9134,5.8957,5.8959,5.896,0,5.8652,5.8698,5.8707,5.873,5.8739,5.8777,5.8797,5.8774,5.8796,5.8814,5.8848,5.8882,5.8907,5.8968,5.8961,5.899,5.8974,5.9041,5.8978,5.8984,5.8972,5.8969,5.8972,5.9053,5.9055,5.9057,5.9058,0,5.8811,5.8802,5.8834,5.8864,5.889,5.8912,5.893,5.8951,5.8928,5.8955,5.8993,5.9013,5.9052,5.9086,5.9111,5.9114,5.9082,5.9079,5.9092,5.9099,5.9103,5.9099,5.89,5.9073,5.9072,5.9071,5.907,5.9069,5.8927,5.8965,5.8977,5.9014,5.9025,5.9043,5.9077,5.9074,5.9106,5.9137,5.9121,5.9164,5.9175,5.9205,5.9213,5.9246,5.9219,5.924,5.9245,5.925,5.9256,5.91,5.9251,5.925,5.925,5.9249,5.9249,0,5.9082,5.9087,5.9121,5.9149,5.9177,5.9146,5.9165,5.919,5.9229,5.9243,5.9269,5.9312,5.9344,5.934,5.9369,5.9396,5.9381,5.9404,5.94,5.9401,5.928,5.9264,5.9415,5.9415,5.9415,5.9415,5.9415,5.9415,5.9165,5.9227,5.922,5.9287,5.9292,5.9335,5.9348,5.9364,5.9374,5.9424,5.9451,5.9449,5.9455,5.9484,5.9511,5.9509,5.952,5.9548,5.954,5.9426,5.941,5.9394,5.9379,5.9551,5.9552,5.9658,5.9659,5.966]}]]